• In India
  • List of Countries
  • For 7 days
  • Water Temperature
  • Satellite Maps
  • Weather Map
  • Weather Widgets
  • user-avatar
    Login

    Hourly Weather Algiers

    Today, 23 June, Saturday

    Time Temperature Precipitation Wind Pressure Humidity
    00:00 +25°C° 0 mm 3 mps 750 mmHg 72%
    01:00 +24°C° 0 mm 3 mps 749 mmHg 71%
    02:00 +24°C° 0 mm 3 mps 749 mmHg 70%
    03:00 +24°C° 0 mm 3 mps 749 mmHg 70%
    04:00 +25°C° 0 mm 3 mps 749 mmHg 67%
    05:00 +25°C° 0 mm 3 mps 749 mmHg 64%
    06:00 +26°C° 0 mm 3 mps 749 mmHg 61%
    07:00 +28°C° 0 mm 4 mps 750 mmHg 52%
    08:00 +30°C° 0 mm 4 mps 750 mmHg 43%
    09:00 +33°C° 0 mm 4 mps 750 mmHg 34%
    10:00 +34°C° 0 mm 5 mps 750 mmHg 32%
    11:00 +35°C° 0 mm 5 mps 750 mmHg 29%
    12:00 +36°C° 0 mm 6 mps 750 mmHg 26%
    13:00 +36°C° 0 mm 6 mps 750 mmHg 28%
    14:00 +36°C° 0 mm 7 mps 749 mmHg 30%
    15:00 +36°C° 0 mm 7 mps 749 mmHg 31%
    16:00 +35°C° 0 mm 6 mps 749 mmHg 36%
    17:00 +33°C° 0 mm 6 mps 749 mmHg 41%
    18:00 +32°C° 0 mm 6 mps 749 mmHg 46%
    19:00 +30°C° 0 mm 6 mps 749 mmHg 51%
    20:00 +28°C° 0 mm 5 mps 750 mmHg 57%
    21:00 +27°C° 0 mm 5 mps 750 mmHg 62%
    22:00 +27°C° 0 mm 5 mps 750 mmHg 61%
    23:00 +27°C° 0 mm 4 mps 750 mmHg 60%

    Tomorrow, 24 June, Sunday

    Time Temperature Precipitation Wind Pressure Humidity
    00:00 +27°C° 0 mm 4 mps 750 mmHg 59%
    01:00 +26°C° 0 mm 4 mps 749 mmHg 57%
    02:00 +26°C° 0 mm 4 mps 749 mmHg 54%
    03:00 +26°C° 0 mm 4 mps 749 mmHg 52%
    04:00 +27°C° 0 mm 4 mps 749 mmHg 52%
    05:00 +27°C° 0 mm 4 mps 749 mmHg 51%
    06:00 +28°C° 0 mm 4 mps 749 mmHg 50%
    07:00 +30°C° 0 mm 4 mps 749 mmHg 45%
    08:00 +32°C° 0 mm 4 mps 749 mmHg 40%
    09:00 +34°C° 0 mm 5 mps 749 mmHg 35%
    10:00 +35°C° 0 mm 5 mps 749 mmHg 33%
    11:00 +36°C° 0 mm 5 mps 749 mmHg 32%
    12:00 +37°C° 0 mm 5 mps 749 mmHg 30%
    13:00 +38°C° 0 mm 6 mps 748 mmHg 31%
    14:00 +38°C° 0 mm 6 mps 748 mmHg 31%
    15:00 +38°C° 0 mm 6 mps 747 mmHg 32%
    16:00 +36°C° 0 mm 6 mps 747 mmHg 35%
    17:00 +35°C° 0 mm 5 mps 747 mmHg 38%
    18:00 +33°C° 0 mm 5 mps 747 mmHg 41%
    19:00 +32°C° 0 mm 5 mps 747 mmHg 45%
    20:00 +30°C° 0 mm 4 mps 748 mmHg 49%
    21:00 +28°C° 0 mm 4 mps 748 mmHg 54%
    22:00 +28°C° 0 mm 4 mps 748 mmHg 54%
    23:00 +27°C° 0 mm 4 mps 748 mmHg 53%

    Day after tomorrow, 25 June, Monday

    Time Temperature Precipitation Wind Pressure Humidity
    00:00 +27°C° 0 mm 4 mps 747 mmHg 53%
    01:00 +27°C° 0 mm 4 mps 747 mmHg 54%
    02:00 +26°C° 0 mm 4 mps 747 mmHg 54%
    03:00 +26°C° 0 mm 4 mps 747 mmHg 55%
    04:00 +27°C° 0 mm 4 mps 747 mmHg 53%
    05:00 +27°C° 0 mm 3 mps 748 mmHg 51%
    06:00 +28°C° 0 mm 3 mps 748 mmHg 50%
    07:00 +29°C° 0 mm 4 mps 748 mmHg 44%
    08:00 +32°C° 0 mm 4 mps 748 mmHg 38%
    09:00 +34°C° 0 mm 5 mps 748 mmHg 33%
    10:00 +35°C° 0 mm 5 mps 748 mmHg 31%
    11:00 +36°C° 0 mm 6 mps 749 mmHg 29%
    12:00 +36°C° 0 mm 6 mps 749 mmHg 28%
    13:00 +36°C° 0 mm 6 mps 748 mmHg 28%
    14:00 +38°C° 0 mm 6 mps 748 mmHg 28%
    15:00 +38°C° 0 mm 6 mps 748 mmHg 28%
    16:00 +35°C° 0 mm 6 mps 748 mmHg 30%
    17:00 +34°C° 0 mm 6 mps 748 mmHg 33%
    18:00 +33°C° 0 mm 6 mps 748 mmHg 36%
    19:00 +32°C° 0 mm 5 mps 748 mmHg 40%
    20:00 +30°C° 0 mm 5 mps 749 mmHg 44%
    21:00 +28°C° 0 mm 4 mps 749 mmHg 48%
    22:00 +28°C° 0 mm 4 mps 749 mmHg 49%
    23:00 +27°C° 0 mm 4 mps 749 mmHg 49%

    26 June, Tuesday

    Time Temperature Precipitation Wind Pressure Humidity
    00:00 +27°C° 0 mm 4 mps 749 mmHg 49%
    01:00 +27°C° 0 mm 4 mps 748 mmHg 49%
    02:00 +26°C° 0 mm 4 mps 748 mmHg 50%
    03:00 +26°C° 0 mm 4 mps 748 mmHg 50%
    04:00 +26°C° 0 mm 3 mps 748 mmHg 48%
    05:00 +27°C° 0 mm 3 mps 748 mmHg 47%
    06:00 +27°C° 0 mm 3 mps 749 mmHg 45%
    07:00 +29°C° 0 mm 3 mps 749 mmHg 40%
    08:00 +30°C° 0 mm 4 mps 749 mmHg 36%
    09:00 +33°C° 0 mm 4 mps 749 mmHg 31%
    10:00 +34°C° 0 mm 5 mps 749 mmHg 31%
    11:00 +35°C° 0 mm 5 mps 749 mmHg 30%
    12:00 +35°C° 0 mm 5 mps 749 mmHg 30%
    13:00 +35°C° 0 mm 6 mps 749 mmHg 31%
    14:00 +35°C° 0 mm 6 mps 748 mmHg 32%
    15:00 +35°C° 0 mm 6 mps 748 mmHg 33%
    16:00 +34°C° 0 mm 6 mps 748 mmHg 36%
    17:00 +33°C° 0 mm 6 mps 748 mmHg 39%
    18:00 +32°C° 0 mm 5 mps 748 mmHg 42%
    19:00 +30°C° 0 mm 5 mps 748 mmHg 46%
    20:00 +28°C° 0 mm 5 mps 749 mmHg 51%
    21:00 +27°C° 0 mm 4 mps 749 mmHg 55%
    22:00 +27°C° 0 mm 4 mps 749 mmHg 56%
    23:00 +26°C° 0 mm 5 mps 748 mmHg 57%

    27 June, Wednesday

    Time Temperature Precipitation Wind Pressure Humidity
    00:00 +26°C° 0 mm 5 mps 748 mmHg 58%
    01:00 +26°C° 0 mm 4 mps 748 mmHg 58%
    02:00 +25°C° 0 mm 4 mps 748 mmHg 58%
    03:00 +25°C° 0 mm 4 mps 748 mmHg 58%
    04:00 +26°C° 0 mm 4 mps 748 mmHg 57%
    05:00 +26°C° 0 mm 4 mps 748 mmHg 55%
    06:00 +27°C° 0 mm 3 mps 748 mmHg 54%
    07:00 +28°C° 0 mm 4 mps 748 mmHg 47%
    08:00 +30°C° 0 mm 4 mps 748 mmHg 41%
    09:00 +33°C° 0 mm 5 mps 748 mmHg 35%
    10:00 +34°C° 0 mm 5 mps 748 mmHg 33%
    11:00 +35°C° 0 mm 6 mps 748 mmHg 31%
    12:00 +35°C° 0 mm 6 mps 748 mmHg 29%
    13:00 +35°C° 0 mm 6 mps 748 mmHg 30%
    14:00 +35°C° 0 mm 6 mps 747 mmHg 30%
    15:00 +35°C° 0 mm 6 mps 747 mmHg 31%
    16:00 +34°C° 0 mm 6 mps 747 mmHg 34%
    17:00 +33°C° 0 mm 6 mps 747 mmHg 37%
    18:00 +32°C° 0 mm 6 mps 747 mmHg 39%
    19:00 +30°C° 0 mm 6 mps 747 mmHg 43%
    20:00 +29°C° 0 mm 5 mps 747 mmHg 47%
    21:00 +27°C° 0 mm 5 mps 748 mmHg 51%
    22:00 +27°C° 0 mm 5 mps 748 mmHg 52%
    23:00 +27°C° 0 mm 5 mps 747 mmHg 53%

    28 June, Thursday

    Time Temperature Precipitation Wind Pressure Humidity
    00:00 +26°C° 0 mm 5 mps 747 mmHg 54%
    01:00 +26°C° 0 mm 5 mps 747 mmHg 55%
    02:00 +26°C° 0 mm 5 mps 747 mmHg 56%
    03:00 +25°C° 0 mm 4 mps 747 mmHg 57%
    04:00 +26°C° 0 mm 4 mps 747 mmHg 56%
    05:00 +26°C° 0 mm 4 mps 747 mmHg 54%
    06:00 +27°C° 0 mm 4 mps 747 mmHg 53%
    07:00 +29°C° 0 mm 5 mps 747 mmHg 47%
    08:00 +32°C° 0 mm 5 mps 747 mmHg 42%
    09:00 +33°C° 0 mm 5 mps 747 mmHg 36%
    10:00 +35°C° 0 mm 6 mps 747 mmHg 35%
    11:00 +36°C° 0 mm 6 mps 747 mmHg 33%
    12:00 +38°C° 0 mm 7 mps 747 mmHg 31%
    13:00 +38°C° 0 mm 7 mps 746 mmHg 31%
    14:00 +38°C° 0 mm 8 mps 746 mmHg 31%
    15:00 +38°C° 0 mm 8 mps 746 mmHg 32%
    16:00 +37°C° 0.2 mm 8 mps 745 mmHg 34%
    17:00 +35°C° 0.2 mm 8 mps 745 mmHg 37%
    18:00 +34°C° 0.2 mm 8 mps 745 mmHg 40%
    19:00 +33°C° 0 mm 8 mps 745 mmHg 43%
    20:00 +32°C° 0 mm 8 mps 745 mmHg 47%
    21:00 +31°C° 0 mm 8 mps 745 mmHg 50%
    22:00 +31°C° 0 mm 8 mps 744 mmHg 48%
    23:00 +31°C° 0 mm 8 mps 744 mmHg 46%
    Show more